Probability
20 19 17 17 14 11 10 8 5 4 5 5 3 1 2 3 2 1 0 0 1 0 0 0 0 0 0 0 0 0 0 0 0 0 0 0 0 0 0 0 0 0 0
24 22 20 18 16 12 10 9 6 5 6 5 3 1 2 3 2 1 0 1 1 1 0 0 0 0 0 0 0 0 0 0 0 0 0 0 0 0 0 0 0 0 0
25 24 21 18 14 11 9 8 7 7 6 5 3 1 1 2 1 0 0 1 1 1 0 0 0 0 0 0 0 0 0 0 0 0 0 0 0 0 0 0 0 0 0
23 21 19 13 9 8 7 6 7 7 6 5 4 2 1 1 0 0 0 0 0 0 0 0 0 0 0 0 0 0 0 0 0 0 0 0 0 0 0 0 0 0 0
20 18 14 10 7 6 5 4 5 5 5 4 4 3 3 2 1 0 0 0 0 0 0 0 0 0 0 0 0 0 0 0 0 0 0 0 0 0 0 0 0 0 0
17 15 11 8 8 7 5 4 4 4 4 3 3 4 5 5 3 1 0 0 0 0 0 0 0 0 0 0 0 0 0 0 0 0 0 0 0 0 0 0 0 0 0
14 12 9 7 7 8 7 6 6 6 5 4 3 4 6 6 4 1 0 0 0 0 0 0 0 0 0 0 0 0 0 0 0 0 0 0 0 0 0 0 0 0 0
13 10 5 4 5 6 8 8 7 6 6 5 4 5 6 6 4 1 0 0 0 0 0 0 0 0 0 0 0 0 0 0 0 0 0 0 0 0 0 0 0 0 0
11 8 3 1 2 3 6 7 5 4 4 5 5 5 5 5 3 1 0 0 0 0 0 0 0 0 0 0 0 0 0 0 0 0 0 0 0 0 0 0 0 0 0
10 6 2 1 1 2 3 4 2 1 2 3 4 4 4 4 3 1 0 0 0 0 0 0 0 0 0 0 0 0 0 0 0 0 0 0 0 0 0 0 0 0 0
6 3 1 0 0 1 2 2 1 0 1 1 2 2 2 2 2 1 0 0 0 0 0 0 0 0 0 0 0 0 0 0 0 0 0 0 0 0 0 0 0 0 0
2 1 1 1 2 2 3 2 1 0 0 0 1 1 0 1 1 0 0 0 0 0 0 0 0 0 0 0 0 0 0 0 0 0 0 0 0 0 0 0 0 0 0
1 2 2 3 3 3 3 2 1 0 0 0 0 0 0 0 0 0 0 0 0 0 0 0 0 0 0 0 0 0 0 0 0 0 0 0 0 0 0 0 0 0 0
3 3 3 3 3 3 2 1 0 0 0 0 0 0 0 0 0 0 0 0 0 0 0 0 0 0 0 0 0 0 0 0 0 0 0 0 0 0 0 0 0 0 0
4 3 3 3 2 1 1 0 0 0 0 0 0 0 0 0 0 0 0 0 0 0 0 0 0 0 0 0 0 0 0 0 0 0 0 0 0 0 0 0 0 0 0
7 6 5 3 2 2 1 1 1 1 1 1 1 0 1 1 0 0 0 0 0 0 0 0 0 0 1 1 0 0 0 0 0 0 0 0 0 0 0 0 0 0 0
12 11 7 3 2 3 3 3 3 2 2 2 2 1 1 1 0 0 0 1 0 0 0 0 0 1 1 1 0 0 0 0 0 0 0 0 0 0 0 0 0 0 0
15 14 9 4 3 5 5 4 4 3 3 3 3 2 1 1 0 0 0 0 0 0 0 0 0 1 1 1 0 0 0 0 0 0 0 0 0 0 0 0 0 0 0
13 11 7 5 6 7 7 5 4 4 4 3 3 3 1 1 1 1 0 0 0 0 0 0 0 0 0 0 0 0 0 0 0 0 0 0 0 0 0 0 0 0 0
7 8 7 7 9 9 7 5 4 4 3 3 3 3 3 2 2 2 1 0 0 0 0 0 0 0 0 0 0 0 0 0 0 0 0 0 0 0 0 0 0 0 0
4 5 6 7 8 9 7 5 4 3 3 3 3 3 3 3 3 3 2 1 1 1 1 0 0 0 0 0 0 0 0 0 0 0 0 0 0 0 0 0 0 0 0
4 4 6 8 7 7 7 5 3 3 3 4 4 3 2 2 3 3 3 3 2 2 2 1 0 0 0 0 0 0 0 0 0 0 0 0 0 0 0 0 0 0 0
5 6 8 8 6 5 5 5 4 3 4 4 4 3 2 2 3 3 3 3 3 3 3 2 1 1 0 0 0 0 0 0 0 0 0 0 0 0 0 0 0 0 0
8 9 10 9 7 5 4 4 3 3 3 4 4 3 3 3 3 3 3 3 3 3 3 3 3 2 1 0 0 0 0 0 0 0 0 0 0 0 0 0 0 0 0
9 10 10 8 6 4 3 3 3 3 3 3 3 4 4 4 3 3 3 2 2 2 3 3 3 3 2 0 0 0 0 0 0 0 0 0 0 0 0 0 0 0 0
8 8 8 6 4 4 3 3 3 3 3 3 3 4 5 4 3 3 2 1 1 1 2 3 3 3 1 0 0 0 0 0 0 0 0 0 0 0 0 0 0 0 0
Wind_Speed
3 4 6 7 8 8 9 9 9 8 7 5 5 4 4 4 3 4 5 5 5 5 4 3 4 4 3 4 4 3 3 1 2 2 1 1 1 1 2 3 3 4 5
4 5 5 6 8 9 9 9 8 8 8 6 4 4 4 3 3 3 4 5 5 5 5 4 4 4 3 4 4 3 3 2 2 3 2 1 2 2 2 2 4 4 3
6 6 6 6 6 7 8 8 8 8 7 6 4 3 2 2 2 2 3 4 5 6 5 5 4 4 4 4 4 4 5 3 2 2 3 3 3 2 2 2 2 3 3
5 5 6 5 6 6 6 6 7 7 7 7 6 7 5 4 4 3 3 4 5 5 6 6 6 5 4 4 4 4 3 4 3 1 1 2 3 2 1 2 1 2 3
6 6 6 6 6 6 6 6 6 6 6 7 7 6 4 3 2 2 3 3 3 4 5 5 5 5 4 4 4 4 4 3 4 3 2 2 1 1 2 1 1 1 1
6 6 5 4 4 5 6 6 6 6 6 7 6 7 6 5 4 4 4 3 2 2 4 5 5 5 4 5 5 4 5 4 4 3 3 3 3 3 3 2 2 1 1
6 7 7 6 4 5 6 6 7 6 6 7 6 6 6 6 6 5 5 4 3 3 4 5 4 4 4 4 4 4 4 4 4 4 3 3 2 2 3 3 2 1 1
6 6 7 7 6 6 6 6 6 6 6 6 6 5 6 5 4 5 5 5 4 4 4 4 5 5 5 5 4 3 4 3 4 4 4 2 2 3 3 3 3 1 0
5 5 5 6 6 6 6 6 6 5 6 6 5 5 5 5 5 5 4 3 3 3 4 5 5 4 4 4 4 3 4 4 4 4 4 3 2 2 2 2 3 4 3
5 5 4 4 5 5 5 5 5 5 5 5 5 4 4 4 4 4 4 4 4 3 4 4 4 4 4 4 4 3 3 4 3 3 3 3 2 2 2 2 2 3 3
6 6 5 4 4 4 4 4 4 4 4 4 4 4 4 4 4 4 4 3 3 3 3 3 3 4 4 4 4 3 3 4 3 3 3 3 2 2 2 2 2 2 3
6 6 5 5 5 5 4 4 4 4 4 4 4 4 4 4 4 3 3 3 3 3 3 3 3 3 3 3 4 4 3 3 3 3 3 3 2 2 1 2 2 2 3
5 5 5 5 5 5 5 4 4 4 3 3 4 4 4 4 4 3 3 3 3 3 3 3 3 3 2 3 3 3 3 3 3 3 3 3 3 2 1 2 2 1 2
6 6 5 5 5 5 5 4 4 3 4 4 4 4 4 4 4 3 3 3 3 3 3 3 3 2 2 3 3 3 3 3 3 2 2 2 3 3 3 2 3 3 3
6 7 6 5 5 5 4 4 4 4 4 5 5 4 4 4 4 4 3 3 3 3 3 4 3 2 2 2 4 4 4 4 4 3 3 3 4 5 4 3 3 4 4
7 7 6 6 6 6 6 5 5 4 5 5 5 5 5 5 4 4 4 5 4 4 4 4 3 3 2 4 6 6 5 5 5 4 4 4 5 8 9 9 8 6 5
7 7 6 6 6 6 6 6 6 5 6 5 5 5 5 5 5 5 5 5 5 5 5 4 4 4 4 6 7 8 6 5 4 4 4 4 5 7 7 10 12 11 10
6 5 5 5 5 5 5 6 6 6 6 6 6 5 6 6 5 5 5 5 5 5 4 4 4 5 5 8 9 10 7 6 6 5 5 5 5 6 7 9 9 8 8
4 4 4 5 5 6 6 7 6 6 6 6 5 5 6 6 6 6 5 5 5 5 5 5 5 6 6 9 10 9 6 6 6 5 6 6 6 7 9 9 9 8 7
4 4 5 6 6 6 7 8 7 6 6 6 6 6 6 6 6 6 5 5 6 6 6 6 6 6 6 7 9 8 6 6 6 5 6 8 7 7 8 7 8 8 5
4 5 5 5 5 6 7 7 6 5 5 6 7 7 6 6 6 6 5 6 6 7 6 7 6 6 6 7 9 8 5 6 6 5 4 5 9 10 9 8 6 7 6
5 6 6 5 4 6 8 7 6 5 6 7 7 7 6 6 6 7 6 6 6 7 6 6 6 5 5 6 8 9 9 7 7 5 5 6 10 11 10 8 9 10 8
5 5 7 6 5 4 6 8 6 6 7 8 8 7 7 6 6 7 6 5 5 5 4 4 5 4 4 5 9 10 10 10 7 6 9 10 11 10 9 11 11 8 6
5 5 7 6 5 5 5 5 6 6 8 8 7 7 7 7 6 5 4 4 4 4 4 5 5 4 4 4 4 5 6 9 8 7 9 12 12 9 9 8 7 6 5
5 5 5 6 5 5 5 5 5 7 8 8 7 7 7 7 7 6 5 4 3 3 5 4 5 5 4 3 5 5 5 5 5 6 5 5 5 6 5 5 5 5 5
5 5 5 5 5 6 5 5 5 6 8 7 6 5 6 6 6 6 7 13 10 11 10 8 7 6 7 9 10 10 10 9 9 7 5 5 5 5 5 5 4 4 4
Wind_Direction
184 158 166 166 164 164 168 174 172 170 163 163 167 169 180 186 193 201 195 188 184 177 172 172 162 163 167 171 160 139 139 130 124 97 45 356 323 241 238 235 234 237 233
155 151 151 160 168 172 173 174 177 173 173 176 169 169 168 182 189 191 187 186 184 178 181 173 171 169 161 162 163 151 141 145 147 134 118 10 339 313 248 225 228 238 232
175 164 160 165 163 169 177 180 178 176 178 172 153 136 123 123 156 180 187 188 182 180 176 175 172 173 170 177 179 169 159 162 167 163 148 154 221 284 312 262 240 234 226
169 165 165 170 174 173 169 174 174 176 178 173 171 170 177 182 190 183 182 180 180 179 178 175 175 176 175 177 185 176 167 155 167 179 178 161 158 162 288 318 286 250 238
171 169 174 180 175 166 167 170 167 174 176 179 181 180 181 176 158 159 167 177 181 183 180 177 175 176 179 183 182 169 173 171 170 173 165 149 129 143 161 249 307 321 272
169 169 161 153 160 157 162 164 170 177 175 177 179 181 179 168 162 172 181 183 180 189 189 180 180 181 182 187 188 180 179 183 177 175 174 168 166 181 174 194 230 258 297
164 159 153 154 169 172 168 168 173 180 177 178 183 184 181 176 180 184 189 184 186 197 200 187 183 184 189 190 180 175 183 185 182 184 191 194 192 167 163 167 189 218 289
163 167 166 169 176 179 172 172 179 182 176 181 188 186 182 180 183 184 182 189 196 203 199 191 190 191 187 187 176 178 190 185 189 194 188 192 203 187 177 172 163 173 276
162 170 167 164 166 171 175 177 176 176 177 181 181 183 186 183 183 181 180 187 193 198 193 191 191 191 185 182 174 184 192 180 188 193 190 197 207 196 195 181 173 170 193
155 161 162 163 168 169 163 159 166 174 175 174 181 185 184 183 177 172 182 188 190 188 179 182 185 184 181 181 178 183 185 179 191 189 187 196 206 196 191 188 187 180 178
162 161 158 156 155 146 150 158 162 162 166 173 176 174 169 163 160 166 179 180 178 175 178 177 175 174 174 173 173 181 179 184 191 187 185 199 194 188 190 179 170 171 163
158 154 151 148 149 150 153 160 164 170 176 172 163 167 158 152 153 164 170 165 168 164 164 164 165 174 173 170 174 182 180 183 192 191 179 188 175 176 177 168 175 175 170
153 146 148 155 161 161 161 164 167 171 167 160 157 153 152 152 157 163 156 151 154 150 150 153 160 164 165 167 172 171 164 169 181 181 177 176 157 161 154 147 147 145 140
162 158 164 169 172 164 159 158 156 153 148 144 145 146 150 148 146 137 130 136 140 141 139 133 136 142 144 142 141 142 136 135 133 132 142 155 158 163 154 138 132 124 115
172 174 175 175 167 155 149 147 146 141 140 136 137 141 132 123 119 114 111 110 110 116 114 112 110 113 125 135 137 134 132 125 114 100 97 99 106 112 121 126 131 130 123
181 182 178 174 170 165 156 150 149 145 139 137 134 122 116 113 110 107 101 96 90 89 93 96 101 99 101 109 121 126 122 118 117 112 95 85 83 89 91 93 93 104 122
181 181 183 183 176 168 156 157 155 143 138 136 130 124 124 120 117 115 106 101 95 90 89 89 92 90 85 96 107 111 110 105 100 98 95 91 82 85 89 82 77 72 78
176 177 171 167 154 146 139 138 135 134 132 130 125 122 122 118 113 107 102 98 94 93 89 85 85 84 81 92 101 101 94 87 80 78 88 95 86 92 100 92 81 71 61
156 158 158 151 140 141 139 133 130 128 127 128 125 124 125 123 118 112 106 99 99 93 88 85 83 83 78 84 93 97 95 88 78 73 76 87 86 90 102 101 96 84 70
121 130 128 123 130 137 136 133 134 134 138 137 129 123 122 124 122 118 110 100 98 95 90 80 76 83 82 81 90 98 103 99 89 75 68 75 88 89 98 105 108 100 83
106 109 112 122 133 132 127 131 132 139 136 124 117 116 118 120 117 111 105 104 102 96 90 86 75 72 77 80 83 92 104 110 102 90 78 75 86 86 86 92 99 111 110
98 105 107 104 112 130 133 133 136 132 122 118 115 114 114 114 113 111 105 103 107 105 100 94 82 66 65 75 83 87 94 104 103 99 93 88 87 87 86 87 95 100 97
99 103 112 106 96 108 130 136 136 133 127 120 116 112 108 105 111 116 116 110 106 109 108 106 99 86 76 78 84 90 93 95 96 97 99 94 89 86 81 79 87 90 91
105 107 110 111 103 96 101 117 128 130 126 121 117 115 112 104 97 95 102 110 115 119 118 115 111 104 92 86 89 94 95 94 94 93 89 85 80 77 75 72 70 68 77
100 106 113 116 111 105 101 105 117 124 123 120 118 116 111 110 99 85 71 87 78 117 131 130 130 128 119 102 109 112 106 109 112 106 88 80 80 79 75 72 68 68 71
95 97 102 109 111 112 106 103 111 123 126 123 120 118 116 112 111 107 83 60 70 77 85 96 108 95 105 112 105 102 103 106 113 100 97 94 92 94 93 91 81 71 69